EW2958 Weather Reports


Display with metric or nautical units.
time (UTC)temp
F
wind
direction
speed
MPH
gust
MPH
rain 1hr
in
rain 24hr
in
rain mn
in
humidity
%
barometer
mb
20260901061531 67 333 7.0 15.0 0.00 0.00 0.00 55 1012.1
20260901060031 67 328 7.0 18.0 0.00 0.00 0.00 54 1012.0
20260901054532 67 338 9.0 15.0 0.00 0.00 0.00 53 1012.2
20260901053034 67 325 7.0 17.0 0.00 0.00 0.00 53 1012.2
20260901051530 67 327 5.0 15.0 0.00 0.00 0.00 53 1012.3
20260901050029 68 271 3.0 8.0 0.00 0.00 0.00 53 1012.5
20260901044529 68 321 5.0 16.0 0.00 0.00 0.00 50 1012.1
20260901043028 68 316 9.0 23.0 0.00 0.00 0.00 51 1011.9
20260901041526 69 338 5.0 16.0 0.00 0.00 0.00 51 1011.9
20260901040028 69 334 9.0 19.0 0.00 0.00 0.00 52 1011.9
20260901034523 69 314 9.0 25.0 0.00 0.00 0.00 52 1012.2
20260901033034 69 320 10.0 26.0 0.00 0.00 0.00 51 1012.5
20260901031516 68 326 14.0 26.0 0.00 0.00 0.00 51 1013.1
20260901030014 68 275 11.0 29.0 0.00 0.00 0.00 50 1013.6
20260901024510 68 332 10.0 26.0 0.00 0.00 0.00 52 1014.0
20260901023008 68 331 10.0 24.0 0.00 0.00 0.00 50 1014.4
20260901021505 68 270 7.0 23.0 0.00 0.00 0.00 50 1014.8
20260901020002 68 302 11.0 25.0 0.00 0.00 0.00 49 1015.2
20260901014603 68 313 11.0 21.0 0.00 0.00 0.00 49 1015.4
20260901013055 68 318 6.0 25.0 0.00 0.00 0.00 52 1016.0
20260901011651 67 333 8.0 21.0 0.00 0.00 0.00 51 1016.3
20260901010050 67 6 10.0 18.0 0.00 0.00 0.00 51 1016.4
20260901004547 66 319 7.0 21.0 0.00 0.00 0.00 54 1016.6
20260901003054 66 335 10.0 17.0 0.00 0.00 0.00 53 1016.6
20260901001542 65 312 6.0 21.0 0.00 0.00 0.00 55 1016.9
20260901000038 64 305 7.0 20.0 0.00 0.00 0.00 54 1017.1
20260831234539 63 359 2.0 9.0 0.00 0.00 0.00 67 1017.3
20260831233029 61 359 4.0 14.0 0.00 0.00 0.00 69 1017.5
20260831231526 60 38 2.0 9.0 0.00 0.00 0.00 72 1018.1
20260831230025 59 72 3.0 12.0 0.00 0.00 0.00 73 1018.2
20260831224518 58 34 4.0 12.0 0.00 0.00 0.00 74 1018.6
20260831223015 58 56 2.0 7.0 0.00 0.00 0.00 74 1018.8
20260831221521 57 55 3.0 6.0 0.00 0.00 0.00 73 1019.2
20260831220019 56 23 6.0 12.0 0.00 0.00 0.00 74 1019.2
20260831214506 56 22 7.0 10.0 0.00 0.00 0.00 75 1019.6
20260831213004 55 346 6.0 11.0 0.00 0.00 0.00 76 1019.7
20260831211559 54 19 6.0 8.0 0.00 0.00 0.00 77 1019.7
20260831210157 53 15 3.0 8.0 0.00 0.00 0.00 80 1019.8
20260831204600 53 15 3.0 10.0 0.00 0.00 0.00 80 1019.8
20260831203116 53 345 3.0 6.0 0.00 0.00 0.00 81 1019.6
20260831201552 53 1 2.0 5.0 0.00 0.00 0.00 81 1019.7
20260831200054 52 333 2.0 4.0 0.00 0.00 0.00 82 1019.9
20260831194549 52 25 2.0 5.0 0.00 0.00 0.00 82 1020.1
20260831193051 51 9 2.0 4.0 0.00 0.00 0.00 81 1020.2
20260831191547 50 325 0.0 3.0 0.00 0.00 0.00 82 1020.4
20260831190056 50 278 0.0 2.0 0.00 0.00 0.00 83 1020.5
20260831184543 49 290 1.0 3.0 0.00 0.00 0.00 85 1020.4
20260831183043 48 291 1.0 2.0 0.00 0.00 0.00 83 1020.5
20260831181552 49 269 3.0 5.0 0.00 0.00 0.00 80 1020.9
20260831180039 51 332 2.0 4.0 0.00 0.00 0.00 79 1020.7
20260831174549 53 316 1.0 6.0 0.00 0.00 0.00 76 1021.0
20260831173036 53 321 3.0 7.0 0.00 0.00 0.00 77 1021.1
20260831171534 53 25 6.0 10.0 0.00 0.00 0.00 78 1021.3
20260831170036 53 344 5.0 11.0 0.00 0.00 0.00 76 1021.6
20260831164527 52 358 5.0 9.0 0.00 0.00 0.00 76 1021.8
20260831163022 50 313 2.0 3.0 0.00 0.00 0.00 76 1022.1
20260831161519 50 331 4.0 8.0 0.00 0.00 0.00 76 1022.3
20260831160034 49 311 0.0 3.0 0.00 0.00 0.00 77 1022.6
20260831154514 49 316 0.0 2.0 0.00 0.00 0.00 77 1022.7
20260831153029 49 319 0.0 3.0 0.00 0.00 0.00 77 1022.9
20260831151508 49 333 1.0 3.0 0.00 0.00 0.00 79 1023.1
20260831150005 47 283 0.0 2.0 0.00 0.00 0.00 84 1023.2
20260831144607 46 283 1.0 1.0 0.00 0.00 0.00 89 1023.4
20260831143100 46 283 0.0 1.0 0.00 0.00 0.00 90 1023.5
20260831141555 45 283 0.0 1.0 0.00 0.00 0.00 90 1023.7
20260831140052 44 283 0.0 3.0 0.00 0.00 0.00 88 1023.8
20260831134548 46 274 2.0 3.0 0.00 0.00 0.00 87 1024.2
20260831133047 47 285 2.0 3.0 0.00 0.00 0.00 84 1024.6
20260831131547 51 272 1.0 2.0 0.00 0.00 0.00 84 1024.8
20260831130053 51 22 1.0 4.0 0.00 0.00 0.00 84 1024.9
20260831124542 51 69 2.0 5.0 0.00 0.00 0.00 85 1025.1
20260831123047 51 30 1.0 5.0 0.00 0.00 0.00 85 1025.3
20260831121542 51 341 1.0 3.0 0.00 0.00 0.00 85 1025.5
20260831120109 52 77 0.0 4.0 0.00 0.00 0.00 83 1025.5
20260831114535 52 20 2.0 5.0 0.00 0.00 0.00 83 1025.7
20260831113034 51 29 1.0 4.0 0.00 0.00 0.00 84 1025.9
20260831111539 51 37 2.0 4.0 0.00 0.00 0.00 85 1025.9
20260831110035 50 348 0.0 2.0 0.00 0.00 0.00 84 1025.9
20260831104538 50 107 0.0 1.0 0.00 0.00 0.00 84 1026.0
20260831103030 51 107 0.0 0.0 0.00 0.00 0.00 83 1026.0
20260831101534 51 107 0.0 0.0 0.00 0.00 0.00 83 1026.2
20260831100029 52 107 0.0 0.0 0.00 0.00 0.00 82 1026.3
20260831094527 52 107 0.0 1.0 0.00 0.00 0.00 82 1026.3
20260831093025 53 107 0.0 2.0 0.00 0.00 0.00 82 1026.5
20260831091528 53 108 1.0 2.0 0.00 0.00 0.00 82 1026.5
20260831090027 53 96 0.0 2.0 0.00 0.00 0.00 82 1026.5
20260831084528 54 96 1.0 3.0 0.00 0.00 0.00 80 1026.6
20260831083025 55 111 1.0 3.0 0.00 0.00 0.00 80 1026.6
20260831081533 56 94 1.0 2.0 0.00 0.00 0.00 78 1026.7
20260831080020 57 89 1.0 2.0 0.00 0.00 0.00 77 1026.8
20260831074521 58 86 1.0 2.0 0.00 0.00 0.00 74 1026.7
20260831073023 59 67 0.0 3.0 0.00 0.00 0.00 73 1026.7
20260831071519 61 89 0.0 3.0 0.00 0.00 0.00 71 1026.7
20260831070026 62 102 0.0 3.0 0.00 0.00 0.00 69 1026.8
20260831064518 62 62 0.0 3.0 0.00 0.00 0.00 68 1026.9
20260831063016 62 88 0.0 0.0 0.00 0.00 0.00 67 1027.0